Terminal Aerodrome Forecast
Issued by NWS

Home | Current Version | Previous Version | Graphics & Text | Print | Product List | Glossary On
Versions: 1 2 3 4 5 6 7 8 9 10 11 12 13 14 15 16 17 18 19 20 21 22 23 24 25 26
365
FTUS43 KABR 210844 AAA
TAFPIR
TAF AMD
KPIR 210844Z 2109/2206 30006KT 5SM BR OVC005
      TEMPO 2109/2113 2SM BR OVC008
     FM211600 VRB03KT 3SM BR OVC015
     FM211800 29006KT P6SM OVC035
     FM220200 30006KT P6SM BKN030=

USA.gov is the U.S. government's official web portal to all federal, state and local government web resources and services.